Hourly Data Report for October 05, 2013

All times are specified in Local Standard Time (LST). Add 1 hour to adjust for Daylight Saving Time where and when it is observed.

GJOA HAVEN A
NUNAVUT

68°38'08.000" N
95°51'01.000" W
46.90 m
2302337
71597
YHK

Download Data

Hourly Data (October 2013)
Hourly Data Report for October 5, 2013
Temp Definition
°C
Dew Point Temp Definition
°C
Rel Hum Definition
%
Wind Dir Definition
10's deg

Wind Spd Definition
km/h
Visibility Definition
km
Stn Press Definition
kPa
Hmdx Definition


Wind Chill Definition


Weather Definition


TIME
00:00 Legend Double Dagger -2.8 -4.1 91 17 35 16.1 101.44   -11 LegendNANA
01:00 Legend Double Dagger -2.4 -4.3 87 18 37 16.1 101.39   -10 LegendNANA
02:00 Legend Double Dagger -2.5 -4.2 88 17 37 16.1 101.32   -10 LegendNANA
03:00 Legend Double Dagger -2.6 -3.6 93 18 37 2.4 101.26   -11 LegendNANA
04:00 Legend Double Dagger -2.4 -3.4 93 18 35 9.7 101.21   -10 LegendNANA
05:00 Legend Double Dagger -2.3 -3.4 92 18 37 9.7 101.15   -10 LegendNANA
06:00 Legend Double Dagger -2.3 -3.3 93 18 42 3.2 101.10   -11 LegendNANA
07:00 Legend Double Dagger -2.1 -3.5 91 19 37 16.1 101.09   -10 LegendNANA
08:00 Legend Double Dagger -2.1 -3.6 89 19 41 16.1 101.01   -10 LegendNANA
09:00 Legend Double Dagger -2.2 -3.6 90 20 33 16.1 101.01   -10 LegendNANA
10:00 Legend Double Dagger -2.5 -3.8 91 19 45 16.1 100.95   -11 LegendNANA
11:00 Legend Double Dagger -2.2 -3.8 89 19 42 16.1 100.92   -11 LegendNANA
12:00 Legend Double Dagger -2.1 -4.0 87 18 41 16.1 100.88   -10 LegendNANA
13:00 Legend Double Dagger -2.0 -4.4 84 18 39 16.1 100.86   -10 LegendNANA
14:00 Legend Double Dagger -1.6 -4.9 78 18 33 16.1 100.85   -9 LegendNANA
15:00 Legend Double Dagger -1.5 -5.2 76 17 32 16.1 100.83   -9 LegendNANA
16:00 Legend Double Dagger -1.5 -4.7 79 19 32 16.1 100.81   -9 LegendNANA
17:00 Legend Double Dagger -1.4 -5.3 75 17 32 16.1 100.77   -9 LegendNANA
18:00 Legend Double Dagger -1.6 -5.1 77 17 32 16.1 100.75   -9 LegendNANA
19:00 Legend Double Dagger -2.1 -5.9 76 17 32 16.1 100.72   -9 LegendNANA
20:00 Legend Double Dagger -1.9 -5.2 78 17 28 16.1 100.70   -9 LegendNANA
21:00 Legend Double Dagger -1.9 -5.4 77 17 28 16.1 100.69   -9 LegendNANA
22:00 Legend Double Dagger -1.9 -5.0 79 17 22 12.9 100.70   -8 LegendNANA
23:00 Legend Double Dagger -1.8 -5.1 79 18 24 16.1 100.70   -8 LegendNANA

Notes on Data Quality.

Legend

  • E = Estimated
  • M = Missing
  • NA = Not Available
  • ‡ = Partner data that is not subject to review by the National Climate Archives
Date modified: